Location: Barrio de Canyet
(41.4665°N, 2.2381°E)
Time: 03:21:31
(UTC+00:00)

USA 234 - Pass Details

Date: 09 April 2020
Orbit: 1102 x 1106 km, 123.0° (Epoch: 14 May)

Event Time Altitude Azimuth Distance (km) Brightness Sun altitude
Rises 19:53:21 0° 53° (NE) 3,924 5.9 -16.4°
Reaches altitude 10° 19:56:05 10° 62° (ENE) 2,964 5.2 -16.8°
Maximum altitude 20:02:03 37° 128° (SE) 1,649 3.7 -17.8°
Drops below altitude 10° 20:07:59 10° 194° (SSW) 2,953 5.3 -18.8°
Sets 20:10:40 0° 202° (SSW) 3,908 6.1 -19.2°
